User: anonymous   Login
Location: Unspecified
(0.0000°N, 0.0000°E)
Time: 19:37:55
(UTC+00:00)
Language:

TECHNOSAT - Orbit

View from above orbital plane
View from above orbital plane
View from above satellite
View from above satellite

Ground track
Ground track

The orbit data is extracted from the following two-line orbital elements,

1 42829U 17042E   19077.93580538 +.00000195 +00000-0 +25186-4 0  9995
2 42829 097.5748 334.5761 0014550 011.6445 348.5107 14.90935599091262
Epoch (UTC): 18 March 2019 22:27:33
Eccentricity: 0.0014550
inclination: 97.5748°
perigee height: 585 km
apogee height: 605 km
right ascension of ascending node: 334.5761°
argument of perigee: 11.6445°
revolutions per day: 14.90935599
mean anomaly at epoch: 348.5107°
orbit number at epoch: 9126

The dashed part of the orbit path shows where the satellite is in the earth's shadow,  

DLR